This demonstration page uses our WeatherBlox Daily Observations layout. Learn more.

Left ArrowRight Arrow

38.20091, -84.87328

Hourly Observations for April 16, 2020

Temp ( °F °C ) Dew Point ( °F °C ) Humidity (%) Winds ( mph kmh ) Pressure ( in mb ) Visibility ( mi km ) Precip ( " mm )
12:53 am 00:53 Clear 38 3.3 22 -5.6 52 52 N 5 7 30.22 1023 10 16 0.00 0.00
1:53 am 01:53 Clear 34 1.1 23 -5 64 64 NNW 3 6 30.24 1024 10 16 0.00 0.00
2:53 am 02:53 Clear 30 -1.1 22 -5.6 72 72 Calm 30.25 1024 10 16 0.00 0.00
3:53 am 03:53 Clear 29 -1.7 22 -5.6 75 75 Calm 30.25 1025 10 16 0.00 0.00
4:53 am 04:53 Clear 28 -2.2 22 -5.6 78 78 Calm 30.27 1025 10 16 0.00 0.00
5:53 am 05:53 Clear 27 -2.8 22 -5.6 81 81 Calm 30.29 1026 10 16 0.00 0.00
6:53 am 06:53 Clear 25 -3.9 20 -6.7 81 81 Calm 30.30 1026 10 16 0.00 0.00
7:53 am 07:53 Sunny 28 -2.2 24 -4.4 85 85 Calm 30.32 1027 10 16 0.00 0.00
8:53 am 08:53 Sunny 37 2.8 26 -3.3 65 65 SSE 6 9 30.33 1027 10 16 0.00 0.00
9:53 am 09:53 Sunny 41 5 23 -5 49 49 SSW 6 9 30.35 1028 10 16 0.00 0.00
10:53 am 10:53 Sunny 46 7.8 23 -5 40 40 VRB 7 11 30.36 1028 10 16 0.00 0.00
11:53 am 11:53 Cloudy 45 7.2 20 -6.7 37 37 WNW 9 15 30.38 1029 10 16 0.00 0.00
12:53 pm 12:53 Cloudy 48 8.9 22 -5.6 36 36 NW 8 13 30.37 1029 10 16 0.00 0.00
1:53 pm 13:53 Cloudy 49 9.4 24 -4.4 38 38 VRB 5 7 30.37 1028 10 16 0.00 0.00
2:53 pm 14:53 Cloudy 48 8.9 24 -4.4 39 39 Calm 30.35 1028 10 16 0.00 0.00
3:53 pm 15:53 Mostly Cloudy 51 10.6 26 -3.3 38 38 VRB 6 9 30.33 1027 10 16 0.00 0.00
4:53 pm 16:53 Mostly Sunny 52 11.1 27 -2.8 38 38 SW 6 9 30.30 1026 10 16 0.00 0.00
5:53 pm 17:53 Sunny 54 12.2 27 -2.8 35 35 NNW 7 11 30.28 1025 10 16 0.00 0.00
6:53 pm 18:53 Sunny 52 11.1 26 -3.3 37 37 NW 3 6 30.27 1025 10 16 0.00 0.00
7:53 pm 19:53 Sunny 51 10.6 26 -3.3 38 38 Calm 30.26 1025 10 16 0.00 0.00
8:53 pm 20:53 Clear 46 7.8 29 -1.7 51 51 ESE 3 6 30.26 1025 10 16 0.00 0.00
9:53 pm 21:53 Clear 42 5.6 31 -0.6 65 65 N 3 6 30.28 1026 10 16 0.00 0.00
10:53 pm 22:53 Clear 40 4.4 33 0.6 77 77 Calm 30.29 1026 10 16 0.00 0.00
11:53 pm 23:53 Clear 39 3.9 32 0 76 76 Calm 30.28 1026 10 16 0.00 0.00

Powered by AerisWeather